CZ-6A DEB, 60837

Orbit data source: Space-Track

CZ-6A DEB, 60837 is space debris in LEO originally from a launch on Tue, 06 Aug 2024 UTC launched from the Taiyaun Space Center, China (TSC). Debris objects in space refer to the collection of defunct objects orbiting the Earth. Examples of debris include non-operational satellites, rocket bodies, and fragments generated from explosions, collisions, or faulty payload assembly.

Loading next visibility...
Identifier
60837, 2024-140HQ
Orbit
LEO
Country
Flag of CNCN / PRC
Related business
Manufacturer
SAST
Mission
Spacecraft
Bus & Motor
Unknown
Mass
Unknown
Launch date (UTC)
2024-08-06 (2 years ago)
Launch vehicle
Unknown
Launch site
Taiyaun Space Center, China (TSC)
Object type
Payload
Rocket body
Debris
Shape & HBR
Unknown shape, 0.1 m
Radar Cross Section
Medium (>0.1 m² and <1 m²)

Expand to show TLE details & history
Last TLE update: 17 hours ago

TLE from 17 hours ago
0 CZ-6A DEB
1 60837U 24140HQ  26171.27292749  .00000384  00000-0  18317-3 0  9992
2 60837  89.1712 288.4730 0064753 189.3410 170.6579 14.16202695 95653
Epoch: 2026-06-20T06:33Z
TLE epoch observation values (Epoch: 2026-06-20T06:33:00.935Z)
Latitude
-0.00004°
Longitude
-78.27082°
Altitude
887.398 km
Speed
7.385 km/s
True Right ascension
19h 13m 53s
True Declination
0° 00' 00"
Sunlit
Object was in full shadow at epoch
Visualization orbit readout
Latitude
Unknown
Longitude
Unknown
Altitude
Unknown
Speed
Unknown
Apparent Right ascension
Unknown
Apparent Declination
Unknown
Sunlit
N/A
Visualization observer readout
Local Sidereal Time
10:19:06
Azimuth
Unknown
Elevation
Unknown
Doppler factor
Unknown
Orbital elements
Apogee altitude
881.888 km
Perigee altitude
788.471 km
Semi-major axis
7,213.316 km
Eccentricity
0.00648
Inclination
89.1712°
RAAN
288.473°
Arg. of periapsis
189.341°
True anomaly
170.7774°
Mean anomaly
170.6579°
Eccentric anomaly
170.71774°
Mean motion
3.54275 °/min
Orbital period
101.62 mins
BSTAR
0.00018317
Loading maneuver chart data...
Computing Atmospheric mass density...
Loading historical data...
Loading historical data...
Loading historical data...
Loading historical data...
Loading historical data...
Loading historical data...
Loading historical data...

Documentation

Showing up to 5 results
|